SCP
-0 -0 -0 0 0 0 0 0 0 0 0 0 0 -0 -0 0 0 0 0 0 0 0 0 0 0 0 0 0 0 0 0 0 0 0 0 0 -0 -0 0 0 0 0 0 0 0
-0 0 0 -0 0 0 0 0 0 0 0 0 0 0 0 -0 0 0 0 0 0 0 0 0 0 0 0 0 0 0 0 0 0 0 0 0 -0 -0 -0 0 0 0 0 0 0
-0 0 0 0 0 0 0 0 0 0 0 0 0 0 0 0 0 0 0 0 -0 0 0 0 0 0 0 0 0 0 0 0 0 0 0 0 0 -0 0 0 0 0 0 0 0
0 0 0 0 0 0 0 0 0 0 0 0 0 0 0 0 0 0 0 0 -0 0 0 0 0 0 0 0 0 0 0 0 0 0 0 0 -0 0 0 0 0 0 0 0 0
0 -0 -0 -0 -0 0 0 0 0 0 0 0 0 0 0 0 0 0 0 0 0 0 0 0 0 0 0 0 0 0 0 0 0 0 0 0 0 0 0 0 0 -0 0 0 0
-0 -0 -0 -0 -0 0 0 0 0 0 0 0 0 -0 0 0 0 0 0 0 0 0 -0 0 0 0 0 0 0 0 0 0 0 0 0 0 0 0 0 0 0 0 0 0 0
0 0 -0 0 -0 0 0 0 0 0 0 0 0 0 0 0 0 0 0 0 0 0 0 0 0 0 0 0 0 0 0 0 0 0 0 0 0 0 0 0 0 0 0 1 0
0 0 0 0 0 0 0 0 0 0 0 0 0 0 0 0 0 0 0 0 0 0 0 0 0 0 0 0 0 0 0 0 0 0 0 0 0 0 0 0 0 0 0 0 0
0 0 0 0 0 0 0 0 0 0 0 0 0 0 0 0 0 0 0 0 0 0 0 0 0 0 0 0 0 0 0 0 0 0 0 0 0 0 0 0 0 0 0 0 0
0 0 0 0 0 0 0 0 0 0 0 0 0 0 0 0 0 0 0 0 0 0 0 0 0 0 0 0 0 0 0 0 0 0 0 0 0 0 0 0 0 0 0 0 0
0 0 0 0 0 0 0 0 0 0 0 0 0 0 0 0 0 0 0 0 0 0 0 0 0 0 0 0 0 0 0 0 0 0 0 0 0 0 0 0 0 0 0 0 0
0 0 0 0 0 0 0 0 0 0 0 0 0 0 0 0 0 0 0 0 0 0 0 0 0 0 0 0 0 0 0 0 0 0 0 0 0 0 0 0 0 0 0 0 0
0 0 0 0 -0 0 0 0 0 0 0 0 0 0 0 0 0 0 0 0 0 0 0 0 0 0 0 0 0 0 -0 0 0 0 0 0 0 0 0 0 0 0 0 0 1
-0 0 0 -0 0 0 0 0 0 0 0 0 0 0 0 0 0 0 0 0 0 0 0 0 0 0 0 0 0 0 0 0 0 0 0 0 0 0 0 0 0 0 0 0 0
-0 0 0 0 0 0 0 0 0 0 0 0 0 0 0 0 0 0 0 0 0 0 0 0 0 0 0 0 0 0 0 0 0 0 0 0 0 0 0 0 0 0 0 0 0
0 0 -0 0 0 0 0 0 0 0 0 0 0 0 0 0 0 0 0 0 0 0 0 0 0 0 0 0 0 0 0 0 0 0 0 0 -0 -0 0 0 0 0 0 0 0
0 0 0 0 0 0 0 0 0 0 0 0 0 0 0 0 0 0 0 0 0 0 0 0 0 0 0 0 0 0 0 0 0 0 0 0 -0 -0 0 0 0 0 0 0 0
0 0 0 0 0 0 0 0 0 0 0 0 0 0 0 0 0 0 0 0 0 0 0 0 0 0 0 0 0 0 0 0 0 0 0 -0 0 -0 0 0 0 0 0 0 0
0 0 0 0 0 0 0 0 0 0 0 0 0 0 0 0 0 0 0 0 0 0 0 0 0 0 0 0 0 0 0 0 0 0 0 0 0 0 0 0 0 0 0 0 0
0 0 0 0 0 0 0 0 0 0 0 0 0 0 0 0 0 0 0 0 0 0 0 0 0 0 0 0 0 0 0 0 0 0 0 0 0 0 0 -0 0 0 0 0 0
0 0 0 0 0 0 0 0 0 0 0 0 0 0 0 0 0 0 0 0 0 -0 0 0 0 0 0 0 0 0 0 0 0 0 0 0 0 0 0 0 -0 0 -0 0 -0
0 0 0 0 0 0 0 0 0 0 0 0 0 0 0 0 0 0 0 0 0 0 0 0 0 0 0 0 0 0 0 0 0 0 0 0 0 0 0 0 -0 -0 -0 -0 0
0 0 0 0 0 0 0 0 0 0 0 0 0 0 0 0 0 0 0 0 0 0 0 0 0 0 0 0 0 0 0 -0 0 0 0 0 0 0 0 0 -0 -0 -0 -0 -0
0 0 0 0 0 0 0 0 0 0 0 0 0 0 0 0 0 0 -0 0 -0 0 0 0 0 0 0 0 0 0 -0 0 -0 -0 -0 -0 0 -0 0 -0 -0 -0 -0 0 -0
0 0 0 0 0 0 0 0 0 0 0 0 0 0 0 0 -0 0 -0 -0 -0 0 0 0 0 0 0 -0 0 0 0 -0 0 -0 -0 -0 -0 -0 -0 -0 -0 -0 -0 0 0
0 0 0 0 0 0 0 0 0 0 0 0 0 0 0 0 0 -0 0 0 0 0 0 0 0 0 0 0 0 0 0 0 0 0 0 0 0 -0 -0 -0 -0 -0 -0 -0 0
0 0 0 0 0 0 0 0 0 0 0 0 0 0 0 0 0 0 0 0 0 0 0 0 0 -0 0 0 -0 0 0 0 0 0 0 0 0 0 -0 -0 -0 0 -0 -0 0
Wind_Speed_500mb
19 20 16 16 17 23 32 40 45 49 42 39 36 38 36 27 11 15 20 22 22 18 6 12 3 9 4 11 19 14 5 14 15 18 15 50 10 16 17 16 19 24 31 39 74
20 18 12 15 18 24 31 37 43 48 43 39 39 44 33 19 17 18 27 22 21 23 11 11 16 13 6 9 12 11 9 11 9 18 20 40 18 5 5 5 6 25 33 78 76
17 16 13 14 18 23 30 36 42 48 43 37 42 41 22 11 15 23 27 22 20 20 21 17 18 12 10 19 17 10 21 9 27 45 51 41 40 9 16 10 20 12 27 88 78
16 18 16 15 19 24 29 34 38 43 41 30 37 35 10 18 5 22 23 23 20 19 19 25 15 14 5 7 20 15 27 30 40 58 54 31 28 9 25 12 26 20 32 73 85
18 19 18 19 20 23 28 33 36 40 42 28 30 29 12 7 11 23 22 21 21 19 17 17 24 18 7 15 26 10 12 30 35 43 48 48 18 24 22 14 29 34 65 56 66
20 20 20 21 23 26 31 35 37 39 37 26 26 13 15 4 25 29 26 22 19 18 11 17 17 22 21 17 9 22 41 32 40 44 43 26 18 25 20 11 20 30 74 79 82
21 22 23 25 26 29 32 35 36 35 27 23 21 4 6 9 24 25 29 31 28 28 26 11 14 15 25 14 20 29 15 20 23 29 22 37 26 39 22 16 28 43 59 65 65
26 29 29 29 29 30 32 34 30 28 25 14 18 7 7 14 22 28 33 25 19 26 31 27 16 24 10 15 11 10 8 8 12 15 28 12 51 12 28 37 39 44 51 59 73
30 31 32 32 31 31 31 31 20 13 21 10 16 10 8 15 34 31 25 26 28 19 26 28 16 10 10 4 8 7 11 14 14 11 11 11 39 23 45 42 51 37 56 63 71
32 32 32 32 31 31 31 24 19 2 27 5 12 7 4 27 39 18 20 32 24 25 23 24 8 5 7 6 11 21 14 14 14 13 21 21 20 29 41 43 50 51 50 68 69
32 32 33 32 29 29 32 17 20 4 25 6 10 13 24 30 19 20 14 28 22 24 6 7 2 10 8 8 17 12 16 21 24 27 17 28 30 20 32 40 35 44 32 59 68
31 33 33 32 23 28 23 21 19 14 21 13 12 17 18 17 15 20 14 12 22 13 12 12 8 10 10 17 16 16 20 20 20 15 14 26 28 22 23 20 45 52 54 48 66
32 32 31 30 16 28 24 29 26 19 7 12 4 10 11 13 8 15 12 14 8 10 10 5 20 21 17 15 19 13 13 17 27 17 6 14 21 18 28 29 46 60 46 39 46
32 32 32 26 12 16 12 29 25 13 7 3 5 3 12 10 9 16 20 6 6 10 11 11 9 13 14 17 15 18 9 16 20 9 9 4 21 17 18 27 17 38 53 41 56
30 32 31 28 17 17 26 29 16 3 7 3 4 10 15 10 26 18 20 8 8 10 6 14 10 8 9 9 15 19 32 9 13 10 4 16 5 14 11 21 14 18 53 39 59
30 33 28 24 21 24 29 23 3 6 3 3 6 9 17 26 18 26 6 9 12 8 14 25 7 3 6 18 17 2 8 17 6 4 8 10 11 10 4 6 21 33 53 55 63
28 29 24 22 20 22 22 7 8 8 8 12 8 12 15 10 9 12 9 8 8 11 18 13 8 7 8 13 10 11 7 7 8 5 3 17 6 10 21 20 20 37 42 50 59
26 26 18 20 23 24 18 8 14 6 8 7 8 26 3 11 8 15 17 6 17 11 8 8 16 6 10 9 9 13 9 3 5 10 8 19 15 11 23 30 43 21 19 44 47
22 23 14 21 25 22 10 9 1 6 7 13 19 7 11 17 11 16 11 4 6 12 6 7 12 18 22 8 5 10 6 13 3 5 6 4 10 15 26 11 36 37 66 55 43
18 14 10 12 27 11 8 5 5 6 7 7 4 9 11 15 13 16 6 7 6 9 4 9 13 12 16 6 4 4 14 2 4 10 10 14 21 13 11 14 24 23 23 39 34
12 10 2 7 17 5 4 4 4 11 6 5 7 10 10 10 12 9 9 4 3 10 17 7 2 17 10 6 5 8 6 6 7 3 6 8 10 13 18 17 20 15 44 40 26
3 2 3 16 5 4 3 6 2 6 11 11 9 9 6 12 10 8 7 5 13 6 8 3 4 10 15 17 7 6 6 7 6 7 0 2 6 11 17 15 30 35 35 40 38
5 7 6 5 3 4 10 6 9 3 3 8 8 8 8 6 7 9 10 3 39 6 4 8 6 9 20 15 10 7 10 8 5 6 1 7 6 8 13 21 33 37 39 44 41
8 2 8 10 10 7 0 6 8 9 6 8 11 17 7 6 4 10 11 13 34 19 2 3 5 10 11 19 10 16 13 9 8 5 4 4 2 11 7 14 21 27 30 33 38
17 12 10 5 9 5 4 5 7 7 8 4 8 3 5 5 11 6 9 14 26 14 11 5 7 9 18 30 23 18 9 12 7 4 4 6 6 8 4 13 24 31 29 31 34
17 11 10 7 6 5 5 9 9 4 4 7 6 9 9 6 4 13 7 2 12 10 11 12 8 11 15 11 10 6 12 10 7 12 11 8 11 12 28 32 32 32 30 33 35
38 21 12 9 10 8 7 7 5 5 8 7 4 5 9 11 27 47 53 40 32 8 5 6 2 11 11 17 18 9 9 5 7 9 3 6 3 6 15 26 21 24 34 34 32
Wind_Direction_500mb
18 24 33 34 29 18 11 10 7 5 5 7 7 1 352 354 65 53 7 348 342 342 348 25 342 28 171 240 238 221 236 232 228 246 270 289 2 149 189 196 200 240 258 200 163
15 17 21 22 15 7 4 5 3 4 5 7 5 358 1 49 92 35 8 7 5 1 345 30 17 11 241 253 235 196 218 243 260 262 282 297 17 156 141 113 279 231 232 168 161
10 7 7 3 2 358 357 358 358 2 6 11 8 357 7 42 74 2 3 360 1 36 21 356 345 319 268 262 234 246 245 277 288 289 292 291 305 298 164 195 130 302 161 160 164
6 4 357 347 346 348 347 351 352 354 360 2 6 354 353 28 74 350 359 5 19 35 19 357 337 313 248 274 265 259 274 248 258 267 282 287 300 259 191 195 170 159 208 174 170
5 358 350 338 335 338 341 345 346 347 352 350 351 360 34 48 354 345 351 355 11 5 4 349 332 354 352 322 324 277 262 274 293 296 293 298 275 279 209 223 191 187 195 197 170
360 352 344 339 337 339 343 344 342 342 347 353 353 25 41 44 347 354 352 350 350 351 12 6 349 328 304 287 288 295 305 296 297 295 295 292 292 287 280 221 233 191 182 184 171
356 351 348 347 343 343 345 341 341 345 355 357 9 40 25 360 359 357 348 342 345 339 336 316 312 331 323 309 317 317 311 313 299 287 276 296 290 253 270 242 208 199 209 195 197
358 356 354 350 346 342 343 340 341 350 358 12 10 3 331 336 0 345 334 336 330 312 325 339 344 309 241 270 295 304 319 280 265 254 261 206 265 305 276 261 263 233 213 196 192
2 358 355 351 349 346 345 336 343 353 9 18 16 10 350 339 338 335 332 328 331 313 300 303 310 273 288 234 346 307 263 272 300 306 281 185 258 256 256 247 252 249 235 222 195
4 0 357 353 353 348 352 341 338 50 7 51 17 343 314 330 330 339 334 339 332 320 306 244 229 301 306 68 303 308 307 299 293 307 324 299 275 276 267 232 235 246 232 219 215
3 0 358 355 357 356 0 17 15 4 336 281 287 287 312 327 353 339 317 333 324 286 277 207 217 288 307 286 307 289 291 289 296 298 311 293 289 276 286 263 239 241 207 219 216
4 0 358 358 9 5 21 44 34 326 313 330 243 283 324 317 328 2 315 346 333 317 355 7 303 279 303 320 307 299 284 287 290 277 271 289 293 294 276 264 249 239 243 243 226
5 1 359 356 9 9 10 16 359 348 279 310 296 291 287 306 299 304 288 315 283 306 320 278 263 295 305 319 317 317 296 293 278 294 273 299 292 306 297 280 279 233 240 224 186
1 360 360 8 9 356 340 345 344 351 49 199 251 275 308 307 270 303 270 303 299 286 292 269 329 358 355 314 342 311 268 285 295 329 262 217 279 280 282 283 267 238 218 183 201
356 359 357 8 10 11 346 339 342 11 60 243 175 321 313 224 286 295 278 193 229 297 356 283 308 331 301 308 300 269 297 284 279 249 306 286 248 270 282 284 321 285 213 194 197
354 357 358 4 359 349 340 333 22 46 70 357 89 335 351 334 330 340 313 233 287 304 323 310 256 275 251 294 298 293 328 298 286 192 263 214 176 275 295 321 306 330 208 172 183
351 356 358 14 5 358 343 349 41 81 337 359 337 336 313 286 344 340 359 5 58 10 344 326 299 280 261 309 309 310 39 331 337 356 281 9 149 257 322 327 326 306 277 174 165
345 350 12 23 12 0 347 47 54 63 343 359 322 314 237 13 329 350 360 29 29 56 311 342 325 0 305 241 262 312 91 280 316 332 337 353 344 319 321 328 324 16 105 119 129
340 334 351 17 4 349 3 44 49 17 348 331 321 299 347 1 3 15 4 48 59 42 28 331 287 306 309 266 104 323 353 117 325 247 305 272 204 274 285 312 24 28 74 73 83
340 335 306 325 336 345 63 248 108 69 343 333 313 33 343 337 8 6 335 342 354 16 68 277 298 281 302 283 22 262 152 36 53 1 49 19 35 16 227 132 90 51 74 70 77
334 327 311 310 337 62 126 257 77 7 26 6 329 326 312 335 346 313 319 276 330 337 1 5 80 290 350 342 288 336 340 105 129 48 10 342 357 55 74 92 96 94 112 137 136
286 304 179 322 360 221 235 164 179 346 334 270 241 245 257 351 306 314 349 36 8 30 355 305 250 288 283 274 16 304 294 97 97 332 274 199 321 346 103 99 95 90 102 111 116
230 265 242 220 116 321 323 334 190 159 291 326 320 15 8 310 329 290 337 159 10 9 27 329 336 337 344 343 347 338 348 30 129 111 294 97 306 21 53 84 99 103 110 114 118
199 316 192 214 234 170 59 302 359 265 239 238 270 298 317 325 298 298 318 332 344 346 145 113 258 199 225 247 283 302 334 339 101 50 292 232 91 5 92 113 106 105 109 113 114
201 224 200 212 246 181 47 225 284 289 227 289 297 341 13 300 324 269 343 334 339 327 29 62 275 275 267 269 277 263 333 4 53 315 86 316 71 334 52 137 130 124 122 118 120
192 188 189 211 187 145 177 223 218 316 42 288 335 322 22 326 263 288 323 183 250 330 22 357 285 330 295 355 21 295 26 28 47 19 74 91 38 349 67 123 131 133 132 128 129
206 202 182 207 168 127 232 197 122 70 282 255 295 357 326 289 301 291 280 253 242 261 349 264 337 349 275 323 320 57 352 38 94 33 353 90 119 68 45 54 51 151 148 144 140
Wind_Speed_850mb
19 20 16 16 17 23 32 40 45 49 42 39 36 38 36 27 11 15 20 22 22 18 6 12 3 9 4 11 19 14 5 14 15 18 15 50 10 16 17 16 19 24 31 39 74
20 18 12 15 18 24 31 37 43 48 43 39 39 44 33 19 17 18 27 22 21 23 11 11 16 13 6 9 12 11 9 11 9 18 20 40 18 5 5 5 6 25 33 78 76
17 16 13 14 18 23 30 36 42 48 43 37 42 41 22 11 15 23 27 22 20 20 21 17 18 12 10 19 17 10 21 9 27 45 51 41 40 9 16 10 20 12 27 88 78
16 18 16 15 19 24 29 34 38 43 41 30 37 35 10 18 5 22 23 23 20 19 19 25 15 14 5 7 20 15 27 30 40 58 54 31 28 9 25 12 26 20 32 73 85
18 19 18 19 20 23 28 33 36 40 42 28 30 29 12 7 11 23 22 21 21 19 17 17 24 18 7 15 26 10 12 30 35 43 48 48 18 24 22 14 29 34 65 56 66
20 20 20 21 23 26 31 35 37 39 37 26 26 13 15 4 25 29 26 22 19 18 11 17 17 22 21 17 9 22 41 32 40 44 43 26 18 25 20 11 20 30 74 79 82
21 22 23 25 26 29 32 35 36 35 27 23 21 4 6 9 24 25 29 31 28 28 26 11 14 15 25 14 20 29 15 20 23 29 22 37 26 39 22 16 28 43 59 65 65
26 29 29 29 29 30 32 34 30 28 25 14 18 7 7 14 22 28 33 25 19 26 31 27 16 24 10 15 11 10 8 8 12 15 28 12 51 12 28 37 39 44 51 59 73
30 31 32 32 31 31 31 31 20 13 21 10 16 10 8 15 34 31 25 26 28 19 26 28 16 10 10 4 8 7 11 14 14 11 11 11 39 23 45 42 51 37 56 63 71
32 32 32 32 31 31 31 24 19 2 27 5 12 7 4 27 39 18 20 32 24 25 23 24 8 5 7 6 11 21 14 14 14 13 21 21 20 29 41 43 50 51 50 68 69
32 32 33 32 29 29 32 17 20 4 25 6 10 13 24 30 19 20 14 28 22 24 6 7 2 10 8 8 17 12 16 21 24 27 17 28 30 20 32 40 35 44 32 59 68
31 33 33 32 23 28 23 21 19 14 21 13 12 17 18 17 15 20 14 12 22 13 12 12 8 10 10 17 16 16 20 20 20 15 14 26 28 22 23 20 45 52 54 48 66
32 32 31 30 16 28 24 29 26 19 7 12 4 10 11 13 8 15 12 14 8 10 10 5 20 21 17 15 19 13 13 17 27 17 6 14 21 18 28 29 46 60 46 39 46
32 32 32 26 12 16 12 29 25 13 7 3 5 3 12 10 9 16 20 6 6 10 11 11 9 13 14 17 15 18 9 16 20 9 9 4 21 17 18 27 17 38 53 41 56
30 32 31 28 17 17 26 29 16 3 7 3 4 10 15 10 26 18 20 8 8 10 6 14 10 8 9 9 15 19 32 9 13 10 4 16 5 14 11 21 14 18 53 39 59
30 33 28 24 21 24 29 23 3 6 3 3 6 9 17 26 18 26 6 9 12 8 14 25 7 3 6 18 17 2 8 17 6 4 8 10 11 10 4 6 21 33 53 55 63
28 29 24 22 20 22 22 7 8 8 8 12 8 12 15 10 9 12 9 8 8 11 18 13 8 7 8 13 10 11 7 7 8 5 3 17 6 10 21 20 20 37 42 50 59
26 26 18 20 23 24 18 8 14 6 8 7 8 26 3 11 8 15 17 6 17 11 8 8 16 6 10 9 9 13 9 3 5 10 8 19 15 11 23 30 43 21 19 44 47
22 23 14 21 25 22 10 9 1 6 7 13 19 7 11 17 11 16 11 4 6 12 6 7 12 18 22 8 5 10 6 13 3 5 6 4 10 15 26 11 36 37 66 55 43
18 14 10 12 27 11 8 5 5 6 7 7 4 9 11 15 13 16 6 7 6 9 4 9 13 12 16 6 4 4 14 2 4 10 10 14 21 13 11 14 24 23 23 39 34
12 10 2 7 17 5 4 4 4 11 6 5 7 10 10 10 12 9 9 4 3 10 17 7 2 17 10 6 5 8 6 6 7 3 6 8 10 13 18 17 20 15 44 40 26
3 2 3 16 5 4 3 6 2 6 11 11 9 9 6 12 10 8 7 5 13 6 8 3 4 10 15 17 7 6 6 7 6 7 0 2 6 11 17 15 30 35 35 40 38
5 7 6 5 3 4 10 6 9 3 3 8 8 8 8 6 7 9 10 3 39 6 4 8 6 9 20 15 10 7 10 8 5 6 1 7 6 8 13 21 33 37 39 44 41
8 2 8 10 10 7 0 6 8 9 6 8 11 17 7 6 4 10 11 13 34 19 2 3 5 10 11 19 10 16 13 9 8 5 4 4 2 11 7 14 21 27 30 33 38
17 12 10 5 9 5 4 5 7 7 8 4 8 3 5 5 11 6 9 14 26 14 11 5 7 9 18 30 23 18 9 12 7 4 4 6 6 8 4 13 24 31 29 31 34
17 11 10 7 6 5 5 9 9 4 4 7 6 9 9 6 4 13 7 2 12 10 11 12 8 11 15 11 10 6 12 10 7 12 11 8 11 12 28 32 32 32 30 33 35
38 21 12 9 10 8 7 7 5 5 8 7 4 5 9 11 27 47 53 40 32 8 5 6 2 11 11 17 18 9 9 5 7 9 3 6 3 6 15 26 21 24 34 34 32
Wind_Direction_850mb
18 24 33 34 29 18 11 10 7 5 5 7 7 1 352 354 65 53 7 348 342 342 348 25 342 28 171 240 238 221 236 232 228 246 270 289 2 149 189 196 200 240 258 200 163
15 17 21 22 15 7 4 5 3 4 5 7 5 358 1 49 92 35 8 7 5 1 345 30 17 11 241 253 235 196 218 243 260 262 282 297 17 156 141 113 279 231 232 168 161
10 7 7 3 2 358 357 358 358 2 6 11 8 357 7 42 74 2 3 360 1 36 21 356 345 319 268 262 234 246 245 277 288 289 292 291 305 298 164 195 130 302 161 160 164
6 4 357 347 346 348 347 351 352 354 360 2 6 354 353 28 74 350 359 5 19 35 19 357 337 313 248 274 265 259 274 248 258 267 282 287 300 259 191 195 170 159 208 174 170
5 358 350 338 335 338 341 345 346 347 352 350 351 360 34 48 354 345 351 355 11 5 4 349 332 354 352 322 324 277 262 274 293 296 293 298 275 279 209 223 191 187 195 197 170
360 352 344 339 337 339 343 344 342 342 347 353 353 25 41 44 347 354 352 350 350 351 12 6 349 328 304 287 288 295 305 296 297 295 295 292 292 287 280 221 233 191 182 184 171
356 351 348 347 343 343 345 341 341 345 355 357 9 40 25 360 359 357 348 342 345 339 336 316 312 331 323 309 317 317 311 313 299 287 276 296 290 253 270 242 208 199 209 195 197
358 356 354 350 346 342 343 340 341 350 358 12 10 3 331 336 0 345 334 336 330 312 325 339 344 309 241 270 295 304 319 280 265 254 261 206 265 305 276 261 263 233 213 196 192
2 358 355 351 349 346 345 336 343 353 9 18 16 10 350 339 338 335 332 328 331 313 300 303 310 273 288 234 346 307 263 272 300 306 281 185 258 256 256 247 252 249 235 222 195
4 0 357 353 353 348 352 341 338 50 7 51 17 343 314 330 330 339 334 339 332 320 306 244 229 301 306 68 303 308 307 299 293 307 324 299 275 276 267 232 235 246 232 219 215
3 0 358 355 357 356 0 17 15 4 336 281 287 287 312 327 353 339 317 333 324 286 277 207 217 288 307 286 307 289 291 289 296 298 311 293 289 276 286 263 239 241 207 219 216
4 0 358 358 9 5 21 44 34 326 313 330 243 283 324 317 328 2 315 346 333 317 355 7 303 279 303 320 307 299 284 287 290 277 271 289 293 294 276 264 249 239 243 243 226
5 1 359 356 9 9 10 16 359 348 279 310 296 291 287 306 299 304 288 315 283 306 320 278 263 295 305 319 317 317 296 293 278 294 273 299 292 306 297 280 279 233 240 224 186
1 360 360 8 9 356 340 345 344 351 49 199 251 275 308 307 270 303 270 303 299 286 292 269 329 358 355 314 342 311 268 285 295 329 262 217 279 280 282 283 267 238 218 183 201
356 359 357 8 10 11 346 339 342 11 60 243 175 321 313 224 286 295 278 193 229 297 356 283 308 331 301 308 300 269 297 284 279 249 306 286 248 270 282 284 321 285 213 194 197
354 357 358 4 359 349 340 333 22 46 70 357 89 335 351 334 330 340 313 233 287 304 323 310 256 275 251 294 298 293 328 298 286 192 263 214 176 275 295 321 306 330 208 172 183
351 356 358 14 5 358 343 349 41 81 337 359 337 336 313 286 344 340 359 5 58 10 344 326 299 280 261 309 309 310 39 331 337 356 281 9 149 257 322 327 326 306 277 174 165
345 350 12 23 12 0 347 47 54 63 343 359 322 314 237 13 329 350 360 29 29 56 311 342 325 0 305 241 262 312 91 280 316 332 337 353 344 319 321 328 324 16 105 119 129
340 334 351 17 4 349 3 44 49 17 348 331 321 299 347 1 3 15 4 48 59 42 28 331 287 306 309 266 104 323 353 117 325 247 305 272 204 274 285 312 24 28 74 73 83
340 335 306 325 336 345 63 248 108 69 343 333 313 33 343 337 8 6 335 342 354 16 68 277 298 281 302 283 22 262 152 36 53 1 49 19 35 16 227 132 90 51 74 70 77
334 327 311 310 337 62 126 257 77 7 26 6 329 326 312 335 346 313 319 276 330 337 1 5 80 290 350 342 288 336 340 105 129 48 10 342 357 55 74 92 96 94 112 137 136
286 304 179 322 360 221 235 164 179 346 334 270 241 245 257 351 306 314 349 36 8 30 355 305 250 288 283 274 16 304 294 97 97 332 274 199 321 346 103 99 95 90 102 111 116
230 265 242 220 116 321 323 334 190 159 291 326 320 15 8 310 329 290 337 159 10 9 27 329 336 337 344 343 347 338 348 30 129 111 294 97 306 21 53 84 99 103 110 114 118
199 316 192 214 234 170 59 302 359 265 239 238 270 298 317 325 298 298 318 332 344 346 145 113 258 199 225 247 283 302 334 339 101 50 292 232 91 5 92 113 106 105 109 113 114
201 224 200 212 246 181 47 225 284 289 227 289 297 341 13 300 324 269 343 334 339 327 29 62 275 275 267 269 277 263 333 4 53 315 86 316 71 334 52 137 130 124 122 118 120
192 188 189 211 187 145 177 223 218 316 42 288 335 322 22 326 263 288 323 183 250 330 22 357 285 330 295 355 21 295 26 28 47 19 74 91 38 349 67 123 131 133 132 128 129
206 202 182 207 168 127 232 197 122 70 282 255 295 357 326 289 301 291 280 253 242 261 349 264 337 349 275 323 320 57 352 38 94 33 353 90 119 68 45 54 51 151 148 144 140